DELTA 1 DEB, 10756

Orbit data source: Space-Track

DELTA 1 DEB, 10756 is space debris in SSO originally from a launch on Thu, 29 Jul 1976 UTC launched from the Air Force Western Test Range (AFWTR). Debris objects in space refer to the collection of defunct objects orbiting the Earth. Examples of debris include non-operational satellites, rocket bodies, and fragments generated from explosions, collisions, or faulty payload assembly.

Loading next visibility...
Identifier
10756, 1976-077BD
Orbit
SSO
Country
Flag of USUS
Related business
Manufacturer
Unknown
Mission
Spacecraft
Bus & Motor
Unknown
Mass
Unknown
Launch date (UTC)
1976-07-29 (50 years ago)
Launch vehicle
Unknown
Launch site
Air Force Western Test Range (AFWTR)
Object type
Payload
Rocket body
Debris
Shape & HBR
Unknown shape, 1.1 m
Radar Cross Section
Small (<0.1 m²)

Expand to show TLE details & history
Last TLE update: 4 days ago

TLE from 4 days ago
0 DELTA 1 DEB
1 10756U 76077BD  26115.49982070  .00000573  00000-0  42777-2 0  9994
2 10756 101.0766 322.6611 0164543 200.2610 159.1875 12.41824067233400
Epoch: 2026-04-25T11:59Z
TLE epoch observation values (Epoch: 2026-04-25T11:59:44.508Z)
Latitude
-0.00006°
Longitude
-70.79164°
Altitude
1,622.903 km
Speed
7.005 km/s
True Right ascension
21h 30m 38s
True Declination
0° 00' 00"
Sunlit
Object was in daylight at epoch
Visualization orbit readout
Latitude
Unknown
Longitude
Unknown
Altitude
Unknown
Speed
Unknown
Apparent Right ascension
Unknown
Apparent Declination
Unknown
Sunlit
N/A
Visualization observer readout
Local Sidereal Time
16:44:26
Azimuth
Unknown
Elevation
Unknown
Doppler factor
Unknown
Orbital elements
Apogee altitude
1,625.969 km
Perigee altitude
1,366.829 km
Semi-major axis
7,874.536 km
Eccentricity
0.01645
Inclination
101.0766°
RAAN
322.6611°
Arg. of periapsis
200.261°
True anomaly
159.84479°
Mean anomaly
159.1875°
Eccentric anomaly
159.51739°
Mean motion
3.10603 °/min
Orbital period
115.9 mins
BSTAR
0.0042777
Loading maneuver chart data...
Computing Atmospheric mass density...
Loading historical data...
Loading historical data...
Loading historical data...
Loading historical data...
Loading historical data...
Loading historical data...
Loading historical data...

Documentation

Showing up to 5 results
|